Location: Bittelbronn
(48.4454°N, 8.5870°E)
Time: 00:40:30
(UTC+00:00)

Meteor 2-5 Rocket - Pass Details

Date: 09 August 2024
Orbit: 833 x 910 km, 81.2° (Epoch: 07 September)

Event Time Altitude Azimuth Distance (km) Brightness Sun altitude
Rises 02:27:12 0° 349° (NNW) 3,448 7.4 -14.9°
Reaches altitude 10° 02:29:37 10° 351° (N) 2,518 6.7 -14.6°
Maximum altitude 02:35:22 77° 77° (ENE) 905 3.9 -13.9°
Drops below altitude 10° 02:41:11 10° 164° (SSE) 2,553 5.9 -13.2°
Sets 02:43:39 0° 166° (SSE) 3,499 6.6 -12.9°
